|
|
Asteroid (2161) Grissom
(Preview)
Asteroid (2161) Grissom makes its closest approach to the Earth (2.187 AU) on the 24th March. 2011.
|
Blobrana
|
0
|
|
|
|
|
Asteroid (2421) Nininger
(Preview)
Asteroid (2421) Nininger makes its closest approach to the Earth (2.407 AU) on the 24th March, 2011.
|
Blobrana
|
0
|
|
|
|
|
Asteroid 2009 MF10
(Preview)
Orbital elements: 2009 MF10 Epoch 2009 July 8.0 TT = JDT 2455020.5 MPC M 42.39148 (2000.0) P Q n 0.00371057 Peri. 272.16983 -0.54918912 +0.77922549 a 41.3214651 Node 319.27710 -0.45458014 -0.58177260 e 0.2141601 Incl. 27.57391 -0.70124760 -0.23312720 P 266 H 6.0 G 0.15 From 7 observations 2009 J...
|
Blobrana
|
1
|
|
|
|
|
Asteroid (485) Genua
(Preview)
Asteroid (485) Genua is at Opposition on the 22nd March, 2011. Magnitude=11.4 Distance to Sun=2.522 AU Distance to Earth=1.528 AU Ephemeris Date Dec Ra 21 Mar 2011 -5°21'23.0993 29° 33 40 22 Mar 2011 -5°10'10.1764 29° 22 37 23 Mar 2011 -4°58'55.1983 29° 11 37 24 Mar 2011 -4°47'38.7911 29° 00 41 25 Mar...
|
Blobrana
|
0
|
|
|
|
|
Asteroid 2011 CY46
(Preview)
Orbital elements: 2011 CY46 PHA, Earth MOID = 0.0463 AU Epoch 2011 Feb. 8.0 TT = JDT 2455600.5 MPC M 336.16355 (2000.0) P Q n 0.31562016 Peri. 220.81572 -0.61603054 +0.78672280 a 2.1364508 Node 11.34924 -0.66012897 -0.48811494 e 0.6122814 Incl. 11.62935 -0.42980940 -0.37790347 P 3.12 H 19.9 G 0.1...
|
Blobrana
|
1
|
|
|
|
|
Asteroid 2008 EF85
(Preview)
Asteroid 2008 EF85 near-Earth flyby (0.066 AU) on the 20th March, 2011.
|
Blobrana
|
0
|
|
|
|
|
Asteroid (3554) Amun
(Preview)
Asteroid (3554) Amun (2011 February, H = 15.9) The period of this 2.5 km wide asteroid is 2.53 hours. DATE RA(2000) DC(2000) E.D. S.D. Mag a 02/01 14 17.73 +19 21.7 0.459 1.186 16.46 53.6 02/11 14 09.66 +17 49.6 0.399 1.209 16.04 47.9 02/21 13 50.26 +15 57.3 0.340...
|
Blobrana
|
1
|
|
|
|
|
Asteroid 2011 EW74
(Preview)
Orbital elements: 2011 EW74 Earth MOID = 0.0254 AU Epoch 2011 Feb. 8.0 TT = JDT 2455600.5 MPC M 347.95468 (2000.0) P Q n 0.60554596 Peri. 154.88996 -0.91923043 -0.39364878 a 1.3836874 Node 1.97476 +0.31451041 -0.74560430 e 0.2755269 Incl. 12.54896 +0.23685148 -0.53769403 P 1.63 H 23.1 G 0.15 U 7 MP...
|
Blobrana
|
0
|
|
|
|
|
Asteroid 2011 ER74
(Preview)
Orbital elements: 2011 ER74 Earth MOID = 0.0381 AU Epoch 2011 Feb. 8.0 TT = JDT 2455600.5 MPC M 164.08558 (2000.0) P Q n 1.28311758 Peri. 165.05356 +0.90369438 +0.42635853 a 0.8387356 Node 169.44661 -0.41161615 +0.89041309 e 0.2492391 Incl. 12.43293 -0.11793481 +0.15932023 P 0.77 H 24.2 G 0.15 U 8...
|
Blobrana
|
1
|
|
|
|
|
Asteroid 2011 ES74
(Preview)
Orbital elements: 2011 ES74 Earth MOID = 0.0259 AU Epoch 2011 Feb. 8.0 TT = JDT 2455600.5 MPC M 336.26530 (2000.0) P Q n 0.31475674 Peri. 60.82186 -0.73000023 +0.68322853 a 2.1403560 Node 162.25585 -0.64509031 -0.68046210 e 0.5602382 Incl. 3.24945 -0.22573911 -0.26489639 P 3.13 H 24.7 G 0.15 U 9 MP...
|
Blobrana
|
1
|
|
|
|
|
Asteroid 2011 EB74
(Preview)
Orbital elements: 2011 EB74 Earth MOID = 0.0008 AU Epoch 2011 Feb. 8.0 TT = JDT 2455600.5 MPC M 215.90268 (2000.0) P Q n 1.09580899 Peri. 301.41301 +0.46165659 +0.88697144 a 0.9317788 Node 356.01908 -0.74081867 +0.37779414 e 0.1736918 Incl. 10.32571 -0.48791484 +0.26561861 P 0.90 H 26.9 G 0.15 U 8...
|
Blobrana
|
1
|
|
|
|
|
Asteroid 2011 ET74
(Preview)
Orbital elements: 2011 ET74 Earth MOID = 0.0031 AU Epoch 2011 Feb. 8.0 TT = JDT 2455600.5 MPC M 21.69681 (2000.0) P Q n 0.79849184 Peri. 304.55142 -0.20330330 -0.97891021 a 1.1506831 Node 157.15377 +0.91440230 -0.19715263 e 0.2121829 Incl. 2.96220 +0.35005172 -0.05353169 P 1.23 H 27.0 G 0.15 U 9 MP...
|
Blobrana
|
0
|
|
|
|
|
Asteroid 2011 EV73
(Preview)
Orbital elements: 2011 EV73 Earth MOID = 0.0030 AU Epoch 2011 Feb. 8.0 TT = JDT 2455600.5 MPC M 353.52775 (2000.0) P Q n 0.52880706 Peri. 155.02923 -0.84837838 -0.52937905 a 1.5145068 Node 353.00426 +0.48081537 -0.76778526 e 0.3536410 Incl. 1.62650 +0.22151910 -0.36092052 P 1.86 H 28.4 G 0.15 U 8 M...
|
Blobrana
|
1
|
|
|
|
|
Asteroid 2011 EW73
(Preview)
Orbital elements: 2011 EW73 Earth MOID = 0.0033 AU Epoch 2011 Feb. 8.0 TT = JDT 2455600.5 MPC M 17.02478 (2000.0) P Q n 0.63938499 Peri. 90.55441 +0.26392311 -0.96448985 a 1.3344258 Node 344.13132 +0.86946064 +0.24246857 e 0.5367642 Incl. 2.13665 +0.41759165 +0.10472979 P 1.54 H 23.6 G 0.15 U 9 MPE...
|
Blobrana
|
0
|
|
|
|
|
Asteroid 2003 SC11
(Preview)
Orbital elements: 2003 SC11 Earth MOID = 0.2014 AU Epoch 2011 Feb. 8.0 TT = JDT 2455600.5 MPC M 23.56098 (2000.0) P Q n 0.57123677 Peri. 287.74005 -0.27623263 -0.96068065 a 1.4385511 Node 177.66100 +0.90574150 -0.25044309 e 0.2898488 Incl. 43.46537 -0.32144653 +0.11987884 P 1.73 H 20.3 G 0.15 U 3 M...
|
Blobrana
|
0
|
|
|